CZ-6A DEB, 61408

Orbit data source: Space-Track

CZ-6A DEB, 61408 is space debris in LEO originally from a launch on Tue, 06 Aug 2024 UTC launched from the Taiyaun Space Center, China (TSC). Debris objects in space refer to the collection of defunct objects orbiting the Earth. Examples of debris include non-operational satellites, rocket bodies, and fragments generated from explosions, collisions, or faulty payload assembly.

Loading next visibility...
Identifier
61408, 2024-140XZ
Orbit
LEO
Country
Flag of CNCN / PRC
Related business
Manufacturer
SAST
Mission
Spacecraft
Bus & Motor
Unknown
Mass
Unknown
Launch date (UTC)
2024-08-06 (2 years ago)
Launch vehicle
Unknown
Launch site
Taiyaun Space Center, China (TSC)
Object type
Payload
Rocket body
Debris
Shape & HBR
Unknown shape, 0.1 m
Radar Cross Section
Small (<0.1 m²)

Expand to show TLE details & history
Last TLE update: 14 hours ago

TLE from 14 hours ago
0 CZ-6A DEB
1 61408U 24140XZ  26171.24948161  .00003588  00000-0  12691-2 0  9997
2 61408  89.0163 274.5337 0021802 115.6658 244.6795 14.34322215 92661
Epoch: 2026-06-20T05:59Z
TLE epoch observation values (Epoch: 2026-06-20T05:59:15.211Z)
Latitude
-0.00002°
Longitude
-83.74649°
Altitude
787.095 km
Speed
7.457 km/s
True Right ascension
18h 18m 08s
True Declination
0° 00' 00"
Sunlit
Object was in full shadow at epoch
Visualization orbit readout
Latitude
Unknown
Longitude
Unknown
Altitude
Unknown
Speed
Unknown
Apparent Right ascension
Unknown
Apparent Declination
Unknown
Sunlit
N/A
Visualization observer readout
Local Sidereal Time
07:19:54
Azimuth
Unknown
Elevation
Unknown
Doppler factor
Unknown
Orbital elements
Apogee altitude
789.844 km
Perigee altitude
758.657 km
Semi-major axis
7,152.387 km
Eccentricity
0.00218
Inclination
89.0163°
RAAN
274.5337°
Arg. of periapsis
115.6658°
True anomaly
244.45393°
Mean anomaly
244.6795°
Eccentric anomaly
244.56669°
Mean motion
3.58812 °/min
Orbital period
100.33 mins
BSTAR
0.0012691
Loading maneuver chart data...
Computing Atmospheric mass density...
Loading historical data...
Loading historical data...
Loading historical data...
Loading historical data...
Loading historical data...
Loading historical data...
Loading historical data...

Documentation

Showing up to 5 results
|